Location: Lafig�re
(44.4503°N, 4.0357°E)
Time: 19:34:49
(UTC+00:00)

Meteor 2-5 Rocket - Visible Passes

Search period start: 26 January 2021 00:00
Search period end: 05 February 2021 00:00
Orbit: 832 x 912 km, 81.2° (Epoch: 25 January)

Date Brightness Start Highest point End Pass type
(mag) Time Alt. Az. Time Alt. Az. Time Alt. Az.
26 Jan 6.4 18:21:47 10° W 18:24:04 12° WNW 18:26:21 10° NW visible
27 Jan 6.5 18:16:35 10° W 18:18:36 12° WNW 18:20:39 10° NW visible
28 Jan 6.5 18:11:25 10° WNW 18:13:09 11° WNW 18:14:53 10° NW visible
29 Jan 6.6 18:06:19 10° WNW 18:07:41 11° WNW 18:09:03 10° NW visible
30 Jan 6.6 18:01:22 10° WNW 18:02:14 10° WNW 18:03:06 10° NW visible
